Theta_e
328 324 324 322 309 308 303 305 310 308 309 315 320 317 317 321 317 313 335 338 340 340 343 345 347 347 345 344 346 347 348 346 345 344 344 343 343 344 345 345 345 344 341 339 339 339 338 337 336
322 322 322 317 307 302 303 308 307 310 316 319 319 318 317 319 327 329 331 338 341 342 342 342 344 346 345 344 344 345 345 344 343 342 342 341 344 344 342 343 344 344 340 339 338 337 336 335 335
319 320 316 312 308 303 302 307 311 315 315 316 315 321 320 321 328 330 336 339 341 341 340 343 344 345 344 344 344 342 343 342 340 340 340 339 340 343 342 343 343 343 339 338 337 336 335 335 335
319 320 316 307 304 304 304 308 313 312 312 315 316 314 325 331 330 334 338 338 340 340 340 341 344 345 344 344 344 342 339 342 339 338 339 339 339 341 342 342 341 340 339 337 336 335 334 334 334
321 315 306 306 306 306 307 312 315 311 311 314 316 314 321 331 335 337 337 338 338 338 340 340 342 344 344 345 344 342 337 339 339 337 337 336 336 339 340 341 338 339 338 337 335 334 333 333 333
315 314 303 304 305 306 308 313 314 311 312 313 313 317 323 334 334 335 338 337 339 338 339 339 336 339 342 343 343 342 341 340 339 338 334 336 337 336 335 338 337 337 337 336 335 333 332 330 329
315 308 303 307 304 303 308 315 312 310 311 311 318 315 324 330 333 335 336 337 338 338 338 338 337 336 336 338 339 339 339 339 338 338 338 336 332 333 336 338 337 336 335 334 334 332 331 329 327
317 313 303 305 303 303 310 312 312 312 311 320 322 311 317 330 334 336 337 336 336 336 337 338 337 336 336 339 332 334 336 336 336 335 333 331 331 331 332 332 335 335 333 333 332 331 330 328 327
316 308 305 305 301 305 311 309 311 313 314 317 319 317 326 334 334 333 332 331 333 334 334 339 337 335 334 334 333 331 331 331 330 330 327 327 330 330 332 329 333 333 331 330 329 328 327 326 325
313 309 311 314 310 305 310 310 310 310 312 312 316 322 331 333 330 329 327 328 330 330 332 338 337 336 335 332 333 334 334 332 333 333 333 333 331 331 330 326 327 329 329 329 327 325 326 326 327
313 308 313 309 307 308 306 307 308 308 307 311 312 318 329 329 327 328 329 329 328 331 332 333 337 336 336 333 333 333 333 333 332 333 334 334 331 330 329 328 327 328 323 326 327 327 327 327 327
309 313 312 308 306 305 305 307 305 307 310 310 312 320 327 327 329 329 327 328 328 328 331 334 336 336 335 335 334 333 331 331 330 331 333 333 332 331 330 328 328 329 328 326 327 327 326 325 324
310 311 309 308 307 308 308 307 307 307 310 311 311 318 324 327 329 329 329 329 329 327 329 332 335 334 336 335 334 333 331 330 329 330 330 332 331 331 330 329 328 326 326 326 325 325 324 324 323
313 310 307 306 305 306 305 309 306 312 310 309 311 314 321 325 327 329 327 327 328 327 328 331 333 335 334 333 333 333 333 331 330 329 328 329 331 331 329 328 327 327 326 326 325 325 325 324 324
310 307 307 306 306 306 308 306 305 312 314 310 311 312 318 322 326 327 329 328 328 328 328 329 332 333 333 332 331 333 334 333 330 329 330 328 330 330 329 328 328 327 327 327 327 327 326 325 324
307 308 302 310 307 306 307 302 312 316 313 310 312 312 314 320 324 327 330 330 329 329 328 328 330 332 332 332 332 333 332 333 333 331 330 330 331 331 330 329 327 329 328 328 327 327 326 325 325
307 301 303 306 309 308 304 304 311 313 312 310 313 313 312 316 321 326 329 330 331 331 331 328 329 330 331 332 332 331 331 331 333 333 331 330 331 331 330 330 330 329 328 328 327 327 326 325 326
299 300 302 302 305 304 303 303 308 308 303 306 310 312 311 313 316 323 327 329 331 332 332 332 330 330 330 332 331 331 331 331 332 333 332 331 331 331 331 330 328 327 328 328 328 326 327 325 324
304 302 301 304 306 302 303 304 306 310 309 306 308 309 309 310 316 320 324 328 330 331 332 332 331 330 330 330 329 329 328 330 331 333 333 333 332 332 330 329 327 323 324 325 327 326 324 324 325
303 301 300 304 303 301 303 303 307 309 310 311 311 311 312 312 311 316 321 325 328 329 332 333 333 332 331 330 330 329 329 330 332 332 333 334 334 334 331 329 326 324 324 325 325 323 323 323 324
301 300 300 300 298 299 298 297 301 305 307 308 310 311 313 314 313 312 318 323 326 328 330 332 334 334 333 332 331 330 331 331 331 332 332 332 333 332 328 328 327 325 324 323 324 323 321 320 322
296 303 301 297 296 293 297 290 299 303 303 305 307 307 309 311 314 313 314 320 324 326 331 332 333 334 335 334 332 330 328 328 331 332 333 333 332 332 331 330 330 328 326 325 324 323 321 322 321
299 301 299 298 295 295 295 291 296 301 300 302 304 307 307 309 312 313 311 316 322 326 328 331 332 333 334 335 334 332 331 332 333 333 333 334 334 332 331 330 331 330 329 328 325 320 320 321 320
300 297 296 295 295 288 294 293 294 298 301 303 306 306 307 308 309 312 313 312 318 324 328 329 330 330 333 334 335 333 332 332 331 332 332 333 333 331 331 332 332 332 330 327 324 322 321 319 318
298 294 286 284 284 285 292 292 295 301 302 301 302 303 305 306 307 308 310 310 310 315 323 326 328 327 330 332 333 333 333 333 332 332 332 332 332 331 330 331 331 331 331 328 326 323 321 318 316
295 295 288 282 283 287 287 287 294 301 302 303 304 305 305 305 305 305 307 311 309 309 314 319 323 325 327 330 331 333 333 333 333 333 333 333 333 332 331 330 330 330 328 326 324 320 316 315 314
291 289 296 286 281 284 289 292 297 300 299 301 301 303 303 304 305 305 305 305 307 308 309 310 313 318 323 327 329 331 332 332 331 333 334 333 334 331 329 329 327 326 323 319 316 311 308 310 310
295 297 287 289 283 281 287 290 291 295 297 299 300 302 303 305 303 304 305 306 307 306 307 309 309 309 314 320 326 328 330 331 332 332 332 332 333 328 327 325 322 317 313 311 308 304 303 303 302
290 291 292 293 290 285 283 288 299 299 300 300 301 300 300 301 302 303 304 305 306 306 307 307 308 308 309 312 318 324 327 329 329 328 328 329 328 323 321 318 313 309 306 305 303 301 299 299 296
296 293 293 288 285 289 288 288 299 299 300 300 299 299 301 302 303 303 304 304 305 305 306 306 307 308 308 310 313 319 322 323 324 324 323 321 320 318 316 312 309 306 304 303 301 298 297 296 295
Wind_Speed
12 8 7 6 7 5 3 5 3 6 5 2 3 4 10 10 11 4 12 8 13 12 13 11 10 11 12 9 8 8 11 13 14 13 13 13 13 14 16 17 16 17 17 18 18 19 18 18 17
10 8 5 5 6 6 6 7 5 5 7 6 4 1 2 8 8 11 10 12 14 11 11 12 9 11 11 10 8 10 11 13 13 13 12 13 12 15 14 15 13 17 16 18 18 18 17 17 15
7 6 4 4 4 4 3 4 10 9 6 5 3 3 4 6 4 14 14 14 15 10 7 12 10 10 10 10 8 11 11 12 13 12 13 13 14 13 14 16 17 15 17 17 17 17 17 16 16
4 2 4 8 3 3 3 5 10 10 4 1 1 5 6 3 11 8 15 12 15 7 12 10 9 10 11 12 10 11 12 14 12 14 13 13 13 15 15 17 15 15 17 17 17 17 17 16 16
3 2 3 6 3 3 3 3 9 7 5 5 2 5 7 7 5 15 13 12 14 10 13 12 8 9 9 11 11 12 14 14 13 13 12 13 13 11 14 14 16 13 15 16 16 16 16 15 14
5 3 5 9 5 3 2 6 8 5 5 6 4 8 8 8 11 12 12 13 14 13 10 12 9 8 8 13 11 11 14 13 12 12 13 12 12 12 10 11 15 15 14 14 14 14 15 14 14
10 4 5 7 7 5 3 6 7 5 5 4 3 7 7 10 13 12 6 9 11 13 10 11 12 10 9 9 10 10 10 10 11 12 11 12 12 11 10 12 14 14 14 13 13 13 13 13 13
4 4 2 3 5 4 5 8 3 3 6 3 2 3 6 13 15 11 7 11 11 12 11 11 11 12 10 9 8 8 8 9 9 9 10 11 10 10 8 10 12 13 12 12 12 11 10 10 9
2 5 9 7 2 6 8 8 1 2 5 2 5 2 4 19 17 12 9 9 9 6 10 13 11 9 11 10 8 8 8 7 9 8 8 10 8 8 8 11 10 10 10 10 9 8 6 6 7
9 9 10 1 7 5 9 6 6 5 6 6 7 5 12 17 17 17 14 11 13 11 11 12 9 11 10 9 10 9 9 8 7 8 8 5 6 7 9 7 8 8 8 7 6 4 3 7 3
7 10 4 4 4 4 6 7 3 6 6 5 8 12 15 16 15 16 16 16 15 14 8 11 8 7 10 8 7 5 5 5 6 7 6 6 6 6 6 5 5 5 6 5 5 4 3 4 3
8 13 5 7 5 6 7 5 5 5 2 5 5 13 16 18 19 18 18 17 15 15 13 11 13 9 9 7 7 7 6 6 5 6 7 6 4 5 5 4 4 3 2 3 1 2 2 3 3
12 7 6 5 6 3 4 4 0 7 4 3 1 9 16 16 17 16 16 15 15 15 15 13 14 12 10 6 7 7 7 6 6 6 7 6 5 5 5 4 3 3 3 3 3 2 2 2 1
9 6 8 8 7 5 5 8 2 7 6 4 6 9 12 15 16 15 15 16 16 15 15 15 13 14 11 10 9 7 6 7 6 7 7 7 5 5 4 4 4 3 3 2 2 2 2 1 1
4 10 7 9 9 5 6 15 12 15 8 8 8 9 11 13 15 18 16 16 16 15 15 16 15 14 13 11 9 6 6 6 6 6 8 8 7 7 6 5 4 4 3 3 2 3 3 3 2
10 9 9 12 11 6 7 17 12 18 13 13 10 9 11 14 16 16 15 16 17 15 15 15 14 15 15 13 10 8 8 7 7 7 7 9 8 7 6 5 5 4 4 4 4 3 3 3 2
13 10 16 11 11 7 12 10 8 5 10 13 13 11 11 13 15 15 16 16 17 17 17 17 17 17 16 15 11 10 8 8 8 8 8 10 10 9 7 5 5 5 4 3 3 3 3 2 2
14 16 15 18 11 10 14 16 12 7 5 8 12 14 11 12 15 16 17 16 16 17 18 17 14 17 16 11 10 8 8 8 8 8 8 11 8 10 8 5 4 2 2 4 3 4 1 3 3
15 15 19 9 6 5 13 17 15 13 12 14 14 14 12 13 11 13 15 16 16 17 18 18 17 17 13 10 10 9 9 9 9 8 11 11 10 10 9 6 6 4 4 4 3 3 4 3 2
11 13 14 3 5 4 13 22 18 17 17 17 16 16 17 16 12 14 17 17 17 18 17 17 17 18 15 11 10 9 9 8 8 8 9 12 12 11 9 8 7 8 5 5 6 5 2 2 2
17 16 14 10 5 9 10 21 24 18 21 18 16 18 18 18 16 15 17 19 17 18 17 17 16 17 16 16 10 9 8 8 9 9 8 9 10 8 11 11 9 9 7 7 6 7 7 4 4
15 12 3 6 5 9 3 9 14 4 6 12 14 17 20 18 16 12 14 16 18 20 17 19 19 18 16 17 12 13 11 11 9 10 9 10 13 13 13 12 11 9 7 7 7 6 6 4 4
14 12 11 7 8 9 13 9 6 15 15 12 15 14 16 17 17 17 17 16 18 16 17 17 19 19 18 17 16 13 13 10 10 10 11 11 12 13 13 12 12 11 8 9 9 8 8 6 3
13 12 7 2 4 10 15 14 9 13 14 11 11 6 9 13 15 16 15 12 13 12 14 14 18 18 18 19 19 18 17 14 11 12 11 10 9 10 13 13 11 11 9 9 9 9 8 7 5
15 18 4 2 4 9 3 10 16 8 10 5 7 7 7 7 9 11 15 13 11 13 15 15 17 19 19 19 20 21 19 18 17 15 11 11 10 10 12 14 11 9 9 8 7 8 7 8 6
20 16 7 9 9 7 2 12 5 6 6 9 12 11 11 10 7 8 10 10 11 11 12 14 16 17 18 20 20 19 20 13 13 15 11 10 10 10 14 14 12 10 8 7 7 5 5 6 6
10 11 3 5 2 1 8 11 14 15 14 12 12 13 12 8 7 8 7 8 9 10 12 14 15 15 16 19 17 18 17 18 16 17 14 11 12 10 13 14 11 9 10 8 7 6 7 7 6
13 15 5 2 6 8 10 15 13 4 7 10 11 11 8 6 3 4 6 6 6 7 8 10 13 15 15 14 14 14 16 16 15 13 16 15 12 10 12 11 11 10 9 10 10 7 6 9 5
6 14 3 5 6 6 6 10 9 11 11 14 10 2 3 3 4 8 6 6 6 7 7 9 9 11 11 12 12 13 14 15 15 13 13 12 11 11 12 12 12 11 10 10 11 9 9 10 8
15 16 15 9 9 10 8 13 3 5 7 4 2 1 5 6 7 5 5 5 5 6 7 8 8 9 9 10 10 11 11 9 14 13 10 6 9 10 11 12 12 12 11 11 13 13 10 11 11
Wind_Direction
290 295 296 259 255 252 119 122 53 119 141 56 33 334 17 30 6 49 137 129 134 132 125 136 116 126 123 116 98 108 111 102 99 98 98 95 92 83 78 73 86 84 84 80 77 75 71 70 69
311 316 251 286 265 245 104 121 169 109 85 103 105 269 222 80 64 131 128 150 127 134 147 131 119 116 121 111 99 95 103 100 100 101 103 100 94 94 92 89 88 88 83 82 78 74 70 70 72
300 286 279 289 285 315 66 165 106 106 113 134 129 330 30 66 101 144 124 149 138 127 128 114 115 114 115 120 104 91 93 94 95 102 95 102 104 92 93 86 78 92 86 82 80 74 71 71 72
319 242 224 257 266 83 36 141 131 141 124 174 11 120 110 34 147 118 146 151 115 128 115 126 119 120 119 126 115 112 115 103 99 103 105 103 100 87 86 86 79 77 89 85 78 72 68 69 71
283 180 283 248 223 97 101 116 152 161 121 140 138 108 94 95 113 135 137 162 120 159 119 138 118 108 109 134 121 114 121 112 108 102 100 110 107 80 73 81 89 83 81 85 79 72 69 69 72
219 240 232 226 189 122 113 157 165 163 131 125 168 129 116 109 131 128 176 137 169 124 141 136 115 92 95 127 120 107 104 113 111 117 117 113 103 99 96 90 89 83 81 83 79 76 73 70 68
238 223 255 255 154 174 119 166 175 169 144 143 90 146 100 143 141 153 175 142 145 135 134 139 137 119 88 83 105 110 110 115 115 115 99 88 109 107 79 72 89 87 84 81 82 78 74 70 67
284 214 220 265 199 144 138 172 340 201 107 91 331 148 158 146 151 154 166 187 145 150 154 140 148 151 147 129 72 92 98 95 94 97 98 93 88 103 96 93 89 94 89 86 81 80 79 76 69
249 240 211 201 204 124 156 178 126 15 140 180 156 19 64 136 148 161 163 175 112 201 164 137 158 153 142 137 120 110 96 98 109 109 128 159 131 131 111 66 81 95 96 94 89 86 95 117 99
216 229 237 285 165 151 165 197 144 205 167 185 173 103 137 144 160 166 170 176 169 181 173 151 166 157 157 142 160 156 146 158 145 147 182 126 119 72 95 93 87 86 96 98 99 119 212 217 94
201 231 258 143 132 116 141 161 165 231 208 207 195 156 158 157 173 179 182 191 180 174 195 179 154 176 163 157 165 161 181 166 163 165 161 151 124 148 147 142 154 152 198 159 185 173 65 58 33
204 223 272 138 136 164 165 128 177 226 70 60 1 155 171 177 183 189 191 190 185 179 179 208 168 183 175 170 180 172 173 174 171 170 171 165 165 170 156 157 144 169 175 136 166 99 75 87 80
218 185 193 168 152 172 159 178 285 241 219 204 202 172 183 193 195 196 192 194 186 187 182 202 177 187 178 201 196 176 181 181 176 172 181 182 175 179 174 157 169 157 165 170 166 156 152 135 105
193 162 173 162 174 202 243 234 199 216 177 168 182 198 201 203 200 199 197 200 193 190 191 182 207 184 187 190 191 188 196 183 179 180 182 197 180 175 182 171 174 168 184 160 169 164 169 158 194
139 187 194 184 193 229 230 251 225 247 231 260 201 195 207 206 200 208 204 204 199 195 189 190 202 184 189 197 196 201 222 192 190 190 186 189 192 185 182 180 183 175 169 177 181 194 214 218 195
198 232 215 197 193 177 191 256 240 231 228 243 240 203 198 208 211 210 212 208 200 200 194 191 194 195 182 189 197 197 194 217 198 195 189 193 198 195 196 184 190 176 183 200 202 207 231 255 244
208 220 218 205 201 197 209 269 234 286 237 249 251 244 213 210 214 211 211 210 205 201 207 196 195 197 194 190 195 195 195 197 214 200 198 197 197 197 197 195 187 178 201 217 224 222 248 245 248
189 220 230 227 174 219 228 246 252 215 227 250 255 249 241 219 218 212 210 213 208 204 208 203 198 201 197 191 196 193 191 197 209 202 202 198 201 200 204 184 162 167 236 219 213 240 178 295 325
220 211 237 213 142 252 240 256 249 249 233 239 252 256 246 232 220 211 209 210 208 213 210 204 200 202 197 196 195 199 202 197 202 203 199 199 201 188 199 199 177 171 194 223 244 203 235 230 232
236 232 225 180 131 248 277 275 267 254 250 247 246 249 254 249 223 214 200 203 206 210 207 208 205 203 200 197 204 207 207 202 201 199 201 199 195 189 189 199 189 185 188 205 202 196 199 244 160
211 217 223 232 169 229 275 270 271 248 245 245 239 244 244 247 237 222 211 200 201 208 206 208 210 208 206 205 199 203 212 210 204 200 197 204 197 181 186 193 190 192 192 204 193 190 193 201 182
206 219 229 209 264 267 62 288 294 289 244 232 231 236 243 239 235 230 215 214 210 206 201 203 208 210 210 203 206 204 205 205 204 203 201 197 197 200 202 202 202 202 194 203 203 182 191 204 192
223 168 203 224 248 287 256 272 277 244 251 247 252 240 239 243 238 227 223 209 209 213 202 206 206 205 207 205 208 209 211 211 200 210 204 205 198 198 200 196 203 207 208 202 189 180 194 192 163
141 140 127 176 268 258 249 240 262 250 254 255 236 263 268 242 242 235 228 226 214 208 211 210 209 211 206 201 206 213 213 212 209 210 199 201 199 197 202 201 205 202 200 202 189 191 186 184 166
168 161 141 160 200 248 7 236 240 295 306 252 260 246 277 266 242 239 231 218 210 211 205 210 210 213 211 211 207 207 214 213 215 213 207 201 201 196 198 195 200 204 197 196 174 171 174 168 169
191 180 174 196 205 243 119 236 247 215 285 265 235 267 281 246 258 259 260 230 217 216 210 216 216 218 215 207 213 213 210 211 212 214 209 210 207 203 194 191 194 195 174 166 151 136 129 136 137
175 202 305 99 36 298 228 251 266 241 238 245 247 260 262 263 275 267 263 240 234 215 214 215 222 225 224 219 214 214 214 213 210 211 210 206 207 198 199 187 174 173 149 144 134 133 131 133 130
184 157 122 224 200 239 249 253 255 191 248 237 238 251 264 231 306 303 286 278 252 244 241 223 223 224 223 231 223 219 216 217 218 213 210 206 202 175 182 170 158 152 143 138 132 129 126 124 116
180 179 209 183 233 231 265 244 252 233 235 237 252 150 25 29 4 321 324 331 315 297 269 260 247 239 230 225 225 225 222 217 218 221 217 209 186 171 173 171 153 145 144 142 135 135 136 130 128
188 183 180 185 189 243 280 266 198 185 205 185 11 50 349 307 307 314 310 301 296 277 261 254 251 239 232 220 219 226 230 237 216 212 208 189 179 170 172 159 151 147 152 155 151 147 153 145 152